Location: Marysville Observatory
(48.1092°N, 122.1645°W)
Time: 21:32:14
(UTC-07:00)

Amateur Radio Satellites - All Passes

Search period start: 24 August 2016 21:02
Search period end: 25 August 2016 21:02
Location: Marysville Observatory, 48.1092°N, 122.1645°W

Satellite Date Start Highest point End Downlink Frequencies (MHz)
Time Altitude Azimuth
SEEDS 24 Aug 21:08:22 21:12:09 33° 264° (W) 21:15:57 437.485
AUBIESAT-1 24 Aug 21:11:21 21:13:03 12° 49° (NE) 21:14:46 437.475
M-CUBED/EXP-1 PRIME 24 Aug 21:13:04 21:15:39 15° 51° (NE) 21:18:13 437.505
CINEMA 3 24 Aug 21:18:35 21:22:19 21° 270° (W) 21:26:05 145.822/145.860
STRAND 1 24 Aug 21:23:12 21:28:03 45° 292° (WNW) 21:32:54 437.568
CANX-2 24 Aug 21:24:32 21:27:09 16° 270° (W) 21:29:48 2200.000
BEESAT 2 24 Aug 21:24:50 21:26:56 14° 249° (WSW) 21:29:00 435.950
AIST 2 24 Aug 21:28:38 21:32:40 44° 45° (NE) 21:36:42 435.215
CUTE 1.7 + AOD 2 24 Aug 21:31:24 21:33:57 16° 270° (W) 21:36:31 437.475
Cosmos 2491 24 Aug 21:40:22 21:46:34 21° 305° (NW) 21:52:50 435.465 / 435.565
Cosmos 2499 24 Aug 21:47:08 21:47:58 10° 47° (NE) 21:48:47 435.465 / 435.565
AAUSAT CUBESAT 2 24 Aug 21:49:47 21:53:02 22° 267° (W) 21:56:19 437.432
COMPASS 1 24 Aug 21:55:16 21:57:55 16° 270° (W) 22:00:35 437.405
ESTCUBE 1 24 Aug 21:55:24 21:56:04 10° 54° (NE) 21:56:44 437.505/2401.250
CUBEBUG 2 24 Aug 21:58:40 22:02:24 23° 267° (W) 22:06:07 437.445
Oscar 11 24 Aug 22:02:15 22:06:17 39° 262° (W) 22:10:21 145.826/435.025
UWE-3 24 Aug 22:02:58 22:06:56 28° 265° (W) 22:10:51 435.000/436.395/437.385
HUMSAT D 24 Aug 22:03:48 22:07:50 50° 72° (ENE) 22:11:51 437.325/437.525
FUNcube-1 24 Aug 22:05:01 22:09:14 40° 262° (W) 22:13:24 145.935
GONETS M04 24 Aug 22:14:03 22:21:12 26° 59° (ENE) 22:28:18
AISAT 24 Aug 22:17:27 22:18:01 10° 54° (NE) 22:18:35 437.250
DELFI C3 24 Aug 22:20:23 22:24:14 53° 260° (W) 22:28:07 145.870
UNISAT 6 24 Aug 22:23:17 22:25:44 15° 89° (E) 22:28:09 437.425
ZACube-1 24 Aug 22:25:19 22:29:01 25° 266° (W) 22:32:41 437.345
PRISM 24 Aug 22:32:29 22:36:35 55° 289° (WNW) 22:40:40 437.425
PCSat 24 Aug 22:32:36 22:37:50 49° 244° (WSW) 22:43:01 145.827
HO-68 24 Aug 22:34:38 22:35:55 10° 279° (W) 22:37:11 435.675
AIST 1 24 Aug 22:36:43 22:39:17 15° 276° (W) 22:41:51
AUBIESAT-1 24 Aug 22:42:05 22:46:40 65° 67° (ENE) 22:51:17 437.475
M-CUBED/EXP-1 PRIME 24 Aug 22:44:45 22:49:26 82° 68° (ENE) 22:54:11 437.505
ANTELSAT 24 Aug 22:59:19 23:03:14 33° 96° (E) 23:07:06 437.575/2403.000
O/OREOS (USA 219) 24 Aug 23:01:17 23:04:14 16° 45° (NE) 23:07:10 437.305
VELOX 1 24 Aug 23:01:41 23:05:15 24° 63° (ENE) 23:08:49 145.980
AIST 2 24 Aug 23:07:29 23:10:58 26° 244° (WSW) 23:14:27 435.215
CUBEBUG 1 24 Aug 23:11:48 23:15:45 33° 67° (ENE) 23:19:44 437.445
ESTCUBE 1 24 Aug 23:27:35 23:32:03 70° 72° (ENE) 23:36:32 437.505/2401.250
DX 1 24 Aug 23:29:37 23:33:28 31° 65° (ENE) 23:37:19 434.975-435.025
TIGRISAT 24 Aug 23:31:00 23:35:19 65° 101° (E) 23:39:33 435.000
Cosmos 2499 24 Aug 23:36:20 23:43:15 50° 73° (ENE) 23:50:04 435.465 / 435.565
QB50P1 24 Aug 23:36:43 23:38:47 13° 89° (E) 23:40:50 145.935-145.965
CUSAT 1 24 Aug 23:40:13 23:42:07 16° 86° (E) 23:44:14 437.405
HUMSAT D 24 Aug 23:40:57 23:43:45 17° 269° (W) 23:46:33 437.325/437.525
SPROUT 24 Aug 23:44:37 23:48:26 31° 66° (ENE) 23:52:14 437.525
POPSAT HIP 1 24 Aug 23:45:54 23:48:36 16° 90° (E) 23:51:15 437.405
AISAT 24 Aug 23:49:14 23:53:39 69° 73° (ENE) 23:58:07 437.250
UNISAT 6 24 Aug 23:58:37 00:02:55 62° 288° (WNW) 00:07:08 437.425
50 SAT 25 Aug 00:04:42 00:08:16 85° 254° (WSW) 00:11:53 437.505
GONETS M04 25 Aug 00:10:19 00:19:14 85° 263° (W) 00:28:05
QB50P2 25 Aug 00:14:37 00:18:29 33° 96° (E) 00:22:19 145.880/145.840
UKube-1 25 Aug 00:15:41 00:19:58 68° 73° (ENE) 00:24:18 .
TISAT 1 25 Aug 00:16:28 00:19:18 18° 61° (ENE) 00:22:09 437.305
DUCHIFAT 1 25 Aug 00:16:43 00:20:27 29° 96° (E) 00:24:06 145.980
POLYITAN 1 25 Aug 00:17:10 00:21:02 33° 96° (E) 00:24:51 437.675
AUBIESAT-1 25 Aug 00:18:21 00:21:29 18° 264° (W) 00:24:37 437.475
M-CUBED/EXP-1 PRIME 25 Aug 00:21:55 00:24:28 14° 267° (W) 00:27:03 437.505
RS-15 25 Aug 00:24:15 00:30:32 17° 93° (E) 00:36:58 29.354- 29.394
NANOSAT C BR1 25 Aug 00:28:44 00:32:46 41° 98° (E) 00:36:45 145.865
ANTELSAT 25 Aug 00:36:11 00:39:53 28° 295° (WNW) 00:43:32 437.575/2403.000
VELOX 1 25 Aug 00:37:16 00:41:29 43° 261° (W) 00:45:46 145.980
O/OREOS (USA 219) 25 Aug 00:39:40 00:44:18 86° 243° (WSW) 00:48:54 437.305
SO-50 25 Aug 00:40:02 00:44:26 35° 118° (ESE) 00:48:47 436.795
CUBEBUG 1 25 Aug 00:48:14 00:52:04 29° 265° (W) 00:55:56 437.445
ITUPSAT 1 25 Aug 00:57:24 00:59:16 12° 54° (NE) 01:01:09 437.325
JAS-2 25 Aug 00:57:46 01:04:05 48° 99° (E) 01:11:07 435.910
DX 1 25 Aug 01:05:43 01:09:37 31° 264° (W) 01:13:32 434.975-435.025
ESTCUBE 1 25 Aug 01:06:53 01:09:21 14° 271° (W) 01:11:49 437.505/2401.250
TIGRISAT 25 Aug 01:08:54 01:11:32 16° 301° (WNW) 01:14:07 435.000
QB50P1 25 Aug 01:10:48 01:15:03 69° 287° (WNW) 01:19:13 145.935-145.965
SPROUT 25 Aug 01:20:32 01:24:20 30° 265° (W) 01:28:11 437.525
POPSAT HIP 1 25 Aug 01:20:35 01:24:45 55° 288° (WNW) 01:28:51 437.405
CUSAT 1 25 Aug 01:21:23 01:23:51 23° 294° (WNW) 01:26:47 437.405
BUGSAT 1 25 Aug 01:24:49 01:29:00 68° 103° (ESE) 01:33:06 437.445
AISAT 25 Aug 01:28:07 01:30:37 15° 271° (W) 01:33:06 437.250
SWISSCUBE 25 Aug 01:29:50 01:33:40 25° 62° (ENE) 01:37:30 437.505
Cosmos 2499 25 Aug 01:29:54 01:36:06 34° 275° (W) 01:42:16 435.465 / 435.565
Oscar 19 25 Aug 01:41:32 01:45:34 22° 92° (E) 01:49:35 437.125/150
BEESAT 25 Aug 01:46:54 01:51:04 31° 65° (ENE) 01:55:15 436.000
DANDE 25 Aug 01:48:44 01:51:07 32° 288° (WNW) 01:53:39 436.750
TISAT 1 25 Aug 01:50:21 01:54:33 57° 259° (W) 01:58:46 437.305
QB50P2 25 Aug 01:50:37 01:54:12 27° 295° (WNW) 01:57:45 145.880/145.840
DUCHIFAT 1 25 Aug 01:52:25 01:56:06 30° 294° (WNW) 01:59:47 145.980
POLYITAN 1 25 Aug 01:53:10 01:56:44 27° 295° (WNW) 02:00:16 437.675
UKube-1 25 Aug 01:54:12 01:56:30 14° 271° (W) 01:58:48 .
NANOSAT C BR1 25 Aug 02:04:58 02:08:16 22° 296° (WNW) 02:11:33 145.865
GONETS M04 25 Aug 02:08:44 02:14:43 21° 285° (WNW) 02:20:42
SO-50 25 Aug 02:20:13 02:24:52 43° 317° (NW) 02:29:26 436.795
O/OREOS (USA 219) 25 Aug 02:21:48 02:22:55 11° 264° (W) 02:24:02 437.305
Gurwin Techsat 1B 25 Aug 02:26:54 02:31:23 27° 93° (E) 02:35:50 435.225
RS-15 25 Aug 02:28:57 02:40:17 64° 118° (ESE) 02:52:13 29.354- 29.394
MOZHAYETS 4 25 Aug 02:29:43 02:32:01 14° 57° (ENE) 02:34:18
ITUPSAT 1 25 Aug 02:31:33 02:36:19 76° 72° (ENE) 02:41:05 437.325
JAS-2 25 Aug 02:43:09 02:49:03 40° 295° (WNW) 02:55:37 435.910
KKS-1 25 Aug 02:45:40 02:48:24 16° 58° (ENE) 02:51:08 437.445
ITAMSAT 1 25 Aug 02:50:03 02:52:34 14° 87° (E) 02:55:05 435.822/435.867
BUGSAT 1 25 Aug 03:01:29 03:03:51 15° 301° (WNW) 03:06:13 437.445
AO-7 25 Aug 03:05:56 03:09:47 14° 84° (E) 03:13:36 29.400- 29.500
SWISSCUBE 25 Aug 03:06:38 03:11:12 47° 260° (W) 03:15:49 437.505
Oscar 19 25 Aug 03:20:08 03:25:15 57° 290° (WNW) 03:30:20 437.125/150
BEESAT 25 Aug 03:24:25 03:28:47 36° 263° (W) 03:33:11 436.000
STARS 25 Aug 03:29:12 03:32:31 21° 62° (ENE) 03:35:50 437.465
CUBESAT XI-V 25 Aug 03:42:52 03:43:56 11° 54° (NE) 03:45:00 437.345
Cosmos 2491 25 Aug 03:49:41 03:55:03 17° 51° (NE) 04:00:24 435.465 / 435.565
SO-50 25 Aug 04:03:49 04:06:32 15° 339° (NNW) 04:09:16 436.795
MOZHAYETS 4 25 Aug 04:03:57 04:08:32 87° 256° (WSW) 04:13:07
Gurwin Techsat 1B 25 Aug 04:06:28 04:11:34 48° 292° (WNW) 04:16:40 435.225
ITUPSAT 1 25 Aug 04:12:05 04:14:42 15° 271° (W) 04:17:20 437.325
PHONESAT 2.4 25 Aug 04:12:08 04:13:29 12° 162° (SSE) 04:14:50 2401.200-2431.200
KKS-1 25 Aug 04:19:57 04:24:26 72° 257° (WSW) 04:28:57 437.445
ITAMSAT 1 25 Aug 04:27:33 04:32:46 90° 286° (WNW) 04:37:58 435.822/435.867
RS-15 25 Aug 04:41:45 04:53:16 55° 325° (NW) 05:05:20 29.354- 29.394
AO-7 25 Aug 04:55:58 05:04:15 65° 105° (ESE) 05:12:27 29.400- 29.500
Oscar 19 25 Aug 05:02:29 05:03:30 11° 310° (NW) 05:04:32 437.125/150
STARS 25 Aug 05:04:14 05:08:33 50° 260° (W) 05:12:55 437.465
YUBILEINY 25 Aug 05:13:22 05:17:54 15° 71° (ENE) 05:22:26 435.215
CUBESAT XI-V 25 Aug 05:15:53 05:20:27 70° 74° (ENE) 05:25:05 437.345
HORYU 2 25 Aug 05:30:24 05:34:00 24° 94° (E) 05:37:33 437.375
Cosmos 2491 25 Aug 05:45:12 05:53:59 65° 76° (ENE) 06:02:45 435.465 / 435.565
MOZHAYETS 4 25 Aug 05:45:22 05:46:24 11° 274° (W) 05:47:26
PHONESAT 2.4 25 Aug 05:46:58 05:49:12 19° 179° (S) 05:51:27 2401.200-2431.200
SO-50 25 Aug 05:47:51 05:49:04 11° 5° (N) 05:50:17 436.795
ITAMSAT 1 25 Aug 06:08:29 06:11:32 16° 305° (NW) 06:14:37 435.822/435.867
GOMX 1 25 Aug 06:09:33 06:12:43 15° 85° (E) 06:15:50 467.674
BRITE-PL 25 Aug 06:17:09 06:22:23 36° 95° (E) 06:27:35 437.365/2234.400
AO-85 25 Aug 06:17:59 06:22:44 35° 118° (ESE) 06:27:16 145.980
DOVE 4 25 Aug 06:32:46 06:33:38 10° 82° (E) 06:34:30 437.250
Cubesat XI-IV 25 Aug 06:34:18 06:38:25 22° 92° (E) 06:42:30 437.490
CUTE-I 25 Aug 06:46:49 06:51:23 28° 94° (E) 06:55:55 437.470
AO-7 25 Aug 06:49:15 06:56:37 37° 306° (NW) 07:03:59 29.400- 29.500
CUBESAT XI-V 25 Aug 06:55:44 06:58:21 15° 272° (W) 07:01:00 437.345
NOAA 15 25 Aug 06:57:18 07:02:22 43° 98° (E) 07:07:24 137.62
RS-15 25 Aug 06:58:16 07:09:10 36° 357° (N) 07:20:18 29.354- 29.394
NOAA 18 25 Aug 07:02:27 07:07:25 34° 96° (E) 07:12:19 137.9125
STRAND 1 25 Aug 07:03:30 07:08:28 55° 70° (ENE) 07:13:28 437.568
YUBILEINY 25 Aug 07:04:13 07:12:57 68° 93° (E) 07:21:42 435.215
HORYU 2 25 Aug 07:06:33 07:10:43 41° 292° (WNW) 07:14:50 437.375
Cosmos 2504 25 Aug 07:12:08 07:19:07 30° 83° (E) 07:25:44 435.465 / 435.565
LilacSat-2 25 Aug 07:21:36 07:25:22 59° 101° (E) 07:29:05 437.200
PHONESAT 2.4 25 Aug 07:23:19 07:24:57 14° 195° (SSW) 07:26:35 2401.200-2431.200
SO-50 25 Aug 07:27:51 07:31:22 20° 29° (NNE) 07:34:48 436.795
CINEMA 3 25 Aug 07:34:26 07:35:07 10° 84° (E) 07:35:49 145.822/145.860
Cosmos 2491 25 Aug 07:42:45 07:50:16 33° 278° (W) 07:57:49 435.465 / 435.565
GOMX 1 25 Aug 07:46:00 07:51:32 86° 285° (WNW) 07:56:51 467.674
PRISM 25 Aug 07:51:07 07:54:04 20° 62° (ENE) 07:57:03 437.425
BRITE-PL 25 Aug 07:55:34 08:00:52 41° 293° (WNW) 08:06:08 437.365/2234.400
AO-85 25 Aug 07:58:09 08:03:10 46° 316° (NW) 08:07:53 145.980
HO-68 25 Aug 08:03:47 08:09:27 24° 91° (E) 08:15:03 435.675
DOVE 4 25 Aug 08:07:06 08:12:18 74° 102° (ESE) 08:17:13 437.250
Cubesat XI-IV 25 Aug 08:13:39 08:18:53 59° 290° (WNW) 08:24:05 437.490
CUTE-I 25 Aug 08:26:33 08:31:37 46° 293° (WNW) 08:36:40 437.470
NOAA 15 25 Aug 08:37:22 08:42:00 32° 297° (WNW) 08:46:39 137.62
NOAA 18 25 Aug 08:43:02 08:48:09 41° 295° (WNW) 08:53:13 137.9125
STRAND 1 25 Aug 08:44:03 08:48:00 22° 268° (W) 08:51:57 437.568
AO-7 25 Aug 08:44:13 08:47:02 12° 330° (NNW) 08:49:52 29.400- 29.500
SEEDS 25 Aug 08:48:18 08:52:01 30° 95° (E) 08:55:44 437.485
LilacSat-2 25 Aug 08:57:14 08:59:13 14° 299° (WNW) 09:01:12 437.200
TIGRISAT 25 Aug 08:59:03 09:01:07 13° 57° (ENE) 09:03:12 435.000
YUBILEINY 25 Aug 09:02:44 09:10:28 33° 296° (WNW) 09:18:16 435.215
Cosmos 2504 25 Aug 09:03:34 09:11:59 67° 283° (WNW) 09:19:51 435.465 / 435.565
CANX-2 25 Aug 09:03:48 09:08:02 69° 102° (ESE) 09:12:14 2200.000
SO-50 25 Aug 09:07:53 09:12:35 82° 53° (NE) 09:17:06 436.795
CINEMA 3 25 Aug 09:08:23 09:13:05 86° 104° (ESE) 09:17:31 145.822/145.860
CUTE 1.7 + AOD 2 25 Aug 09:10:28 09:14:42 71° 101° (E) 09:18:56 437.475
RS-15 25 Aug 09:13:29 09:25:22 49° 31° (NNE) 09:37:12 29.354- 29.394
UNISAT 6 25 Aug 09:24:57 09:28:32 23° 63° (ENE) 09:32:04 437.425
PRISM 25 Aug 09:25:08 09:29:04 47° 260° (W) 09:33:05 437.425
GOMX 1 25 Aug 09:25:27 09:28:47 17° 304° (NW) 09:32:04 467.674
AAUSAT CUBESAT 2 25 Aug 09:27:17 09:31:16 42° 98° (E) 09:35:14 437.432
AIST 1 25 Aug 09:31:04 09:34:48 29° 89° (E) 09:38:35
COMPASS 1 25 Aug 09:32:29 09:36:37 61° 101° (E) 09:40:46 437.405
ISS 25 Aug 09:36:48 09:38:09 12° 135° (SE) 09:39:31 145.825
AO-85 25 Aug 09:41:49 09:44:45 15° 337° (NNW) 09:47:35 145.980
CUBEBUG 2 25 Aug 09:44:54 09:49:11 60° 101° (E) 09:53:19 437.445
Oscar 11 25 Aug 09:45:44 09:49:29 28° 95° (E) 09:53:13 145.826/435.025
DOVE 4 25 Aug 09:45:50 09:49:22 19° 302° (WNW) 09:52:48 437.250
UWE-3 25 Aug 09:48:26 09:52:30 44° 98° (E) 09:56:29 435.000/436.395/437.385
FUNcube-1 25 Aug 09:49:32 09:53:08 28° 95° (E) 09:56:43 145.935
HO-68 25 Aug 09:50:41 09:57:52 76° 291° (WNW) 10:05:01 435.675
DELFI C3 25 Aug 09:55:18 09:57:41 15° 90° (E) 10:00:04 145.870
Cubesat XI-IV 25 Aug 09:56:25 09:57:53 11° 310° (NW) 09:59:21 437.490
ANTELSAT 25 Aug 10:01:01 10:05:26 46° 70° (ENE) 10:09:46 437.575/2403.000
CUSAT 1 25 Aug 10:04:55 10:10:12 34° 70° (ENE) 10:16:37 437.405
BEESAT 3 25 Aug 10:05:57 10:08:08 15° 112° (ESE) 10:10:21 437.485
ZACube-1 25 Aug 10:09:11 10:13:15 47° 99° (E) 10:17:15 437.345
SEEDS 25 Aug 10:24:02 10:27:40 29° 293° (WNW) 10:31:20 437.485
QB50P1 25 Aug 10:32:21 10:35:10 17° 61° (ENE) 10:38:00 145.935-145.965
TIGRISAT 25 Aug 10:32:31 10:37:09 87° 79° (E) 10:41:43 435.000
DANDE 25 Aug 10:36:37 10:40:24 22° 70° (ENE) 10:45:01 436.750
CANX-2 25 Aug 10:41:00 10:43:23 15° 300° (WNW) 10:45:47 2200.000
POPSAT HIP 1 25 Aug 10:41:39 10:44:51 21° 63° (ENE) 10:48:02 437.405
BUGSAT 1 25 Aug 10:46:26 10:47:03 10° 56° (NE) 10:47:41 437.445
CINEMA 3 25 Aug 10:47:06 10:49:30 14° 303° (WNW) 10:51:50 145.822/145.860
CUTE 1.7 + AOD 2 25 Aug 10:47:42 10:50:02 15° 300° (WNW) 10:52:21 437.475
SO-50 25 Aug 10:49:50 10:52:24 15° 250° (WSW) 10:54:54 436.795
UNISAT 6 25 Aug 11:00:30 11:04:59 48° 261° (W) 11:09:24 437.425
Cosmos 2504 25 Aug 11:02:12 11:07:00 16° 306° (NW) 11:11:39 435.465 / 435.565
AAUSAT CUBESAT 2 25 Aug 11:03:21 11:06:31 21° 296° (WNW) 11:09:40 437.432
AIST 1 25 Aug 11:08:30 11:12:21 30° 288° (WNW) 11:16:15
COMPASS 1 25 Aug 11:09:10 11:11:45 16° 299° (WNW) 11:14:20 437.405
QB50P2 25 Aug 11:10:21 11:14:22 40° 69° (ENE) 11:18:23 145.880/145.840
ISS 25 Aug 11:10:50 11:14:05 63° 153° (SSE) 11:17:21 145.825
DUCHIFAT 1 25 Aug 11:11:44 11:15:37 35° 68° (ENE) 11:19:29 145.980
POLYITAN 1 25 Aug 11:12:52 11:16:53 41° 69° (ENE) 11:20:56 437.675
JAS-2 25 Aug 11:15:43 11:20:02 26° 60° (ENE) 11:24:34 435.910
BEESAT 2 25 Aug 11:18:05 11:21:47 39° 120° (ESE) 11:25:32 435.950
ESTCUBE 1 25 Aug 11:18:37 11:20:08 11° 87° (E) 11:21:39 437.505/2401.250
HUMSAT D 25 Aug 11:18:56 11:22:58 57° 101° (E) 11:26:58 437.325/437.525
GONETS M04 25 Aug 11:21:41 11:28:11 24° 77° (ENE) 11:34:43
Oscar 11 25 Aug 11:21:47 11:25:38 32° 293° (WNW) 11:29:29 145.826/435.025
CUBEBUG 2 25 Aug 11:22:37 11:25:20 17° 300° (WNW) 11:28:01 437.445
NANOSAT C BR1 25 Aug 11:23:55 11:28:02 49° 71° (ENE) 11:32:10 145.865
UWE-3 25 Aug 11:25:31 11:28:41 21° 297° (WNW) 11:31:49 435.000/436.395/437.385
FUNcube-1 25 Aug 11:25:43 11:29:24 30° 293° (WNW) 11:33:02 145.935
RS-15 25 Aug 11:26:36 11:38:56 76° 239° (WSW) 11:51:05 29.354- 29.394
AO-85 25 Aug 11:27:05 11:27:14 10° 2° (N) 11:27:24 145.980
DELFI C3 25 Aug 11:28:57 11:32:51 53° 288° (WNW) 11:36:46 145.870
PCSat 25 Aug 11:38:01 11:40:05 12° 102° (ESE) 11:42:10 145.827
ANTELSAT 25 Aug 11:38:46 11:42:21 22° 267° (W) 11:45:55 437.575/2403.000
AISAT 25 Aug 11:39:22 11:39:24 10° 86° (E) 11:39:26 437.250
HO-68 25 Aug 11:39:41 11:44:31 20° 312° (NW) 11:49:20 435.675
BEESAT 3 25 Aug 11:41:25 11:45:19 68° 310° (NW) 11:49:17 437.485
ZACube-1 25 Aug 11:46:13 11:49:14 19° 298° (WNW) 11:52:13 437.345
CUSAT 1 25 Aug 11:46:37 11:52:20 51° 264° (W) 11:59:21 437.405
AUBIESAT-1 25 Aug 11:52:47 11:56:16 25° 99° (E) 11:59:32 437.475
M-CUBED/EXP-1 PRIME 25 Aug 11:55:53 11:59:48 33° 101° (E) 12:03:24 437.505
QB50P1 25 Aug 12:06:19 12:10:32 59° 259° (W) 12:14:47 145.935-145.965
TIGRISAT 25 Aug 12:12:46 12:14:27 12° 273° (W) 12:16:07 435.000
Gurwin Techsat 1B 25 Aug 12:16:05 12:17:36 11° 50° (NE) 12:19:08 435.225
POPSAT HIP 1 25 Aug 12:16:11 12:20:20 47° 261° (W) 12:24:29 437.405
Cosmos 2499 25 Aug 12:16:56 12:24:14 38° 87° (E) 12:31:04 435.465 / 435.565
BUGSAT 1 25 Aug 12:17:25 12:21:39 75° 75° (ENE) 12:25:55 437.445
DANDE 25 Aug 12:18:30 12:23:15 59° 262° (W) 12:29:35 436.750
AO-7 25 Aug 12:22:58 12:24:41 11° 27° (NNE) 12:26:23 29.400- 29.500
VELOX 1 25 Aug 12:23:47 12:27:37 27° 95° (E) 12:31:25 145.980
CUBEBUG 1 25 Aug 12:32:31 12:36:43 40° 98° (E) 12:40:53 437.445
QB50P2 25 Aug 12:46:55 12:50:19 23° 267° (W) 12:53:44 145.880/145.840
ISS 25 Aug 12:47:28 12:50:40 47° 352° (N) 12:53:53 145.825
DUCHIFAT 1 25 Aug 12:47:47 12:51:22 26° 266° (W) 12:54:58 145.980
POLYITAN 1 25 Aug 12:49:28 12:52:51 22° 267° (W) 12:56:15 437.675
DX 1 25 Aug 12:49:49 12:53:50 33° 97° (E) 12:57:49 434.975-435.025
ESTCUBE 1 25 Aug 12:53:01 12:57:35 88° 293° (WNW) 13:02:08 437.505/2401.250
HUMSAT D 25 Aug 12:55:38 12:58:11 16° 299° (WNW) 13:00:43 437.325/437.525
BEESAT 2 25 Aug 12:56:12 12:59:42 29° 320° (NW) 13:03:15 435.950
JAS-2 25 Aug 12:59:50 13:04:51 49° 261° (W) 13:10:13 435.910
NANOSAT C BR1 25 Aug 13:01:01 13:04:02 19° 268° (W) 13:07:04 145.865
Oscar 19 25 Aug 13:01:33 13:06:26 45° 68° (ENE) 13:11:23 437.125/150
SPROUT 25 Aug 13:02:21 13:06:19 35° 97° (E) 13:10:14 437.525
50 SAT 25 Aug 13:02:48 13:06:26 71° 103° (ESE) 13:10:04 437.505
AO-85 25 Aug 13:06:31 13:09:36 18° 27° (NNE) 13:12:31 145.980
AIST 2 25 Aug 13:07:57 13:11:23 26° 116° (ESE) 13:14:52 435.215
AISAT 25 Aug 13:12:05 13:16:35 84° 102° (ESE) 13:21:04 437.250
GONETS M04 25 Aug 13:15:08 13:23:55 85° 279° (W) 13:32:48
PCSat 25 Aug 13:17:08 13:22:32 75° 121° (ESE) 13:27:59 145.827
BEESAT 3 25 Aug 13:21:24 13:23:44 15° 331° (NNW) 13:26:04 437.485
AUBIESAT-1 25 Aug 13:26:56 13:30:49 35° 299° (WNW) 13:34:26 437.475
M-CUBED/EXP-1 PRIME 25 Aug 13:30:29 13:34:14 29° 301° (WNW) 13:37:44 437.505
TISAT 1 25 Aug 13:31:36 13:34:23 17° 91° (E) 13:37:08 437.305
UKube-1 25 Aug 13:35:02 13:39:24 76° 104° (ESE) 13:43:44 .
RS-15 25 Aug 13:40:46 13:49:21 23° 262° (W) 13:57:53 29.354- 29.394
Gurwin Techsat 1B 25 Aug 13:51:17 13:56:29 59° 70° (ENE) 14:01:44 435.225
BUGSAT 1 25 Aug 13:55:43 13:57:33 12° 272° (W) 13:59:23 437.445
VELOX 1 25 Aug 14:00:03 14:04:09 36° 293° (WNW) 14:08:14 145.980
AO-7 25 Aug 14:07:46 14:14:53 33° 51° (NE) 14:21:58 29.400- 29.500
CUBEBUG 1 25 Aug 14:09:10 14:12:49 25° 296° (WNW) 14:16:27 437.445
Cosmos 2499 25 Aug 14:09:17 14:17:10 51° 286° (WNW) 14:24:32 435.465 / 435.565
ITAMSAT 1 25 Aug 14:10:38 14:15:09 31° 63° (ENE) 14:19:41 435.822/435.867
ISS 25 Aug 14:24:16 14:27:29 51° 11° (NNE) 14:30:43 145.825
DX 1 25 Aug 14:26:09 14:29:57 29° 295° (WNW) 14:33:44 434.975-435.025
ITUPSAT 1 25 Aug 14:29:46 14:32:28 15° 89° (E) 14:35:08 437.325
ESTCUBE 1 25 Aug 14:31:39 14:33:43 13° 303° (WNW) 14:35:46 437.505/2401.250
50 SAT 25 Aug 14:38:17 14:39:30 11° 300° (WNW) 14:40:43 437.505
SPROUT 25 Aug 14:38:32 14:42:09 27° 295° (WNW) 14:45:44 437.525
Oscar 19 25 Aug 14:41:34 14:45:57 28° 266° (W) 14:50:23 437.125/150
AIST 2 25 Aug 14:45:46 14:49:41 42° 315° (NW) 14:53:41 435.215
AO-85 25 Aug 14:46:28 14:50:54 73° 51° (NE) 14:54:56 145.980
AISAT 25 Aug 14:50:08 14:52:26 14° 303° (WNW) 14:54:44 437.250
O/OREOS (USA 219) 25 Aug 14:55:22 14:59:45 55° 111° (ESE) 15:04:11 437.305
PCSat 25 Aug 15:01:57 15:06:29 26° 322° (NW) 15:11:03 145.827
SWISSCUBE 25 Aug 15:03:04 15:07:23 33° 96° (E) 15:11:41 437.505
TISAT 1 25 Aug 15:06:14 15:10:21 53° 289° (WNW) 15:14:26 437.305
UKube-1 25 Aug 15:12:29 15:14:54 15° 302° (WNW) 15:17:17 .
GONETS M04 25 Aug 15:15:42 15:22:14 23° 304° (NW) 15:28:52
YUBILEINY 25 Aug 15:17:18 15:18:17 10° 40° (NE) 15:19:17 435.215
BEESAT 25 Aug 15:20:21 15:24:55 43° 99° (E) 15:29:26 436.000
Gurwin Techsat 1B 25 Aug 15:32:46 15:36:51 22° 269° (W) 15:40:56 435.225
ITAMSAT 1 25 Aug 15:49:36 15:54:30 42° 262° (W) 15:59:25 435.822/435.867
MOZHAYETS 4 25 Aug 15:56:17 15:59:18 17° 90° (E) 16:02:20
AO-7 25 Aug 15:58:39 16:07:02 75° 253° (WSW) 16:15:25 29.400- 29.500
ISS 25 Aug 16:00:47 16:04:00 50° 210° (SSW) 16:07:11 145.825
ITUPSAT 1 25 Aug 16:06:04 16:10:51 75° 287° (WNW) 16:15:37 437.325
KKS-1 25 Aug 16:08:19 16:11:15 17° 91° (E) 16:14:10 437.445
Cosmos 2499 25 Aug 16:09:46 16:12:19 12° 310° (NW) 16:14:47 435.465 / 435.565
AIST 2 25 Aug 16:27:30 16:29:15 12° 337° (NNW) 16:31:00 435.215
AO-85 25 Aug 16:28:23 16:30:39 14° 251° (WSW) 16:32:50 145.980
HORYU 2 25 Aug 16:31:32 16:35:35 35° 67° (ENE) 16:39:38 437.375
O/OREOS (USA 219) 25 Aug 16:35:58 16:39:30 22° 311° (NW) 16:43:04 437.305
CUTE-I 25 Aug 16:36:08 16:38:11 12° 51° (NE) 16:40:13 437.470
SWISSCUBE 25 Aug 16:40:54 16:45:10 33° 294° (WNW) 16:49:25 437.505
NOAA 15 25 Aug 16:43:46 16:47:05 17° 55° (NE) 16:50:25 137.62
PCSat 25 Aug 16:50:14 16:51:53 11° 347° (NNW) 16:53:32 145.827
STARS 25 Aug 16:50:27 16:53:55 22° 93° (E) 16:57:21 437.465
NOAA 18 25 Aug 16:54:21 16:57:49 17° 54° (NE) 17:01:17 137.9125
BEESAT 25 Aug 16:58:33 17:02:30 27° 297° (WNW) 17:06:27 436.000
Cosmos 2491 25 Aug 17:00:02 17:04:03 14° 70° (ENE) 17:08:05 435.465 / 435.565
Cosmos 2504 25 Aug 17:01:08 17:03:50 12° 49° (NE) 17:06:32 435.465 / 435.565
YUBILEINY 25 Aug 17:10:04 17:18:17 41° 68° (ENE) 17:26:24 435.215
CUBESAT XI-V 25 Aug 17:10:13 17:12:40 14° 88° (E) 17:15:08 437.345
GOMX 1 25 Aug 17:20:28 17:24:30 24° 60° (ENE) 17:28:41 467.674
BRITE-PL 25 Aug 17:31:19 17:36:00 51° 70° (ENE) 17:41:07 437.365/2234.400
MOZHAYETS 4 25 Aug 17:32:22 17:36:53 60° 288° (WNW) 17:41:22
DOVE 4 25 Aug 17:39:46 17:43:15 18° 58° (ENE) 17:46:47 437.250
KKS-1 25 Aug 17:43:47 17:48:12 59° 289° (WNW) 17:52:34 437.445
ITUPSAT 1 25 Aug 17:46:03 17:47:53 12° 306° (NW) 17:49:41 437.325
BEESAT 2 25 Aug 17:55:31 17:58:09 16° 31° (NNE) 18:00:45 435.950
AO-7 25 Aug 17:56:06 18:01:13 17° 274° (W) 18:06:21 29.400- 29.500
Cubesat XI-IV 25 Aug 17:59:29 18:04:38 51° 68° (ENE) 18:09:49 437.490
LilacSat-2 25 Aug 18:06:42 18:10:24 48° 72° (ENE) 18:14:07 437.200
HORYU 2 25 Aug 18:08:18 18:12:10 28° 265° (W) 18:16:03 437.375
CUTE-I 25 Aug 18:11:58 18:17:15 65° 71° (ENE) 18:22:32 437.470
BEESAT 3 25 Aug 18:18:00 18:21:37 32° 42° (NE) 18:25:12 437.485
NOAA 15 25 Aug 18:20:55 18:26:11 86° 255° (WSW) 18:31:30 137.62
STARS 25 Aug 18:26:17 18:30:28 43° 291° (WNW) 18:34:37 437.465
NOAA 18 25 Aug 18:32:11 18:37:44 88° 73° (ENE) 18:43:19 137.9125
CUTE 1.7 + AOD 2 25 Aug 18:34:52 18:35:21 10° 56° (ENE) 18:35:50 437.475
PCSat 25 Aug 18:36:00 18:37:56 12° 15° (NNE) 18:39:51 145.827
HO-68 25 Aug 18:36:32 18:42:29 29° 55° (NE) 18:48:25 435.675
CINEMA 3 25 Aug 18:37:33 18:40:55 18° 60° (ENE) 18:44:17 145.822/145.860
CUBESAT XI-V 25 Aug 18:45:54 18:50:37 77° 286° (WNW) 18:55:19 437.345
Cosmos 2491 25 Aug 18:50:29 18:59:02 65° 93° (E) 19:07:41 435.465 / 435.565
Cosmos 2504 25 Aug 18:52:02 18:59:16 56° 74° (ENE) 19:06:16 435.465 / 435.565
GOMX 1 25 Aug 18:57:07 19:02:07 60° 260° (W) 19:07:27 467.674
YUBILEINY 25 Aug 19:06:56 19:15:21 53° 271° (W) 19:23:42 435.215
BRITE-PL 25 Aug 19:10:58 19:14:50 23° 270° (W) 19:18:58 437.365/2234.400
STRAND 1 25 Aug 19:11:50 19:14:28 14° 87° (E) 19:17:05 437.568
CUBEBUG 2 25 Aug 19:12:45 19:14:28 12° 57° (ENE) 19:16:10 437.445
DOVE 4 25 Aug 19:15:06 19:20:16 81° 257° (WSW) 19:25:37 437.250
BEESAT 2 25 Aug 19:32:35 19:36:37 80° 51° (NE) 19:40:37 435.950
AIST 1 25 Aug 19:35:21 19:37:10 12° 62° (ENE) 19:38:58
Cubesat XI-IV 25 Aug 19:40:34 19:44:59 26° 267° (W) 19:49:25 437.490
LilacSat-2 25 Aug 19:42:38 19:44:59 16° 269° (W) 19:47:21 437.200
SEEDS 25 Aug 19:43:20 19:47:03 32° 68° (ENE) 19:50:48 437.485
AIST 2 25 Aug 19:47:41 19:50:00 14° 26° (NNE) 19:52:20 435.215
CUTE-I 25 Aug 19:53:53 19:57:46 20° 269° (W) 20:01:39 437.470
BEESAT 3 25 Aug 19:55:41 19:59:18 34° 241° (WSW) 20:02:54 437.485
CANX-2 25 Aug 19:59:41 20:03:53 76° 73° (ENE) 20:08:06 2200.000
NOAA 15 25 Aug 20:04:22 20:06:45 13° 273° (W) 20:09:10 137.62
CUTE 1.7 + AOD 2 25 Aug 20:06:15 20:10:26 78° 75° (ENE) 20:14:40 437.475
CINEMA 3 25 Aug 20:12:30 20:17:31 74° 258° (WSW) 20:22:31 145.822/145.860
NOAA 18 25 Aug 20:15:57 20:19:07 15° 272° (W) 20:22:18 137.9125
PCSat 25 Aug 20:18:31 20:23:14 29° 40° (NE) 20:27:54 145.827
AAUSAT CUBESAT 2 25 Aug 20:20:43 20:24:37 44° 71° (ENE) 20:28:34 437.432
HO-68 25 Aug 20:22:26 20:29:38 73° 255° (WSW) 20:36:51 435.675
CUBESAT XI-V 25 Aug 20:25:26 20:27:13 12° 304° (NW) 20:29:00 437.345
COMPASS 1 25 Aug 20:26:21 20:30:25 64° 73° (ENE) 20:34:32 437.405
Oscar 11 25 Aug 20:43:45 20:47:38 34° 68° (ENE) 20:51:32 145.826/435.025
DELFI C3 25 Aug 20:44:59 20:47:19 15° 61° (ENE) 20:49:40 145.870
CUBEBUG 2 25 Aug 20:45:39 20:50:22 78° 74° (ENE) 20:54:57 437.445
Cosmos 2504 25 Aug 20:46:03 20:52:13 31° 276° (W) 20:58:14 435.465 / 435.565
FUNcube-1 25 Aug 20:48:01 20:52:04 36° 68° (ENE) 20:56:04 145.935
UWE-3 25 Aug 20:48:11 20:52:41 58° 72° (ENE) 20:57:05 435.000/436.395/437.385
STRAND 1 25 Aug 20:49:12 20:54:20 86° 284° (WNW) 20:59:26 437.568
DOVE 4 25 Aug 20:56:42 20:58:49 12° 276° (W) 21:00:58 437.250
